TimeMST,TemperatureF,Dew PointF,Humidity,Sea Level PressureIn,VisibilityMPH,Wind Direction,Wind SpeedMPH,Gust SpeedMPH,PrecipitationIn,Events,Conditions,WindDirDegrees,DateUTC
12:53 AM,21.2,19.4,93,30.35,10.0,Calm,Calm,-,N/A,,Clear,0,2012-11-20 07:53:00
1:53 AM,23.0,19.9,88,30.37,10.0,Calm,Calm,-,N/A,,Clear,0,2012-11-20 08:53:00
2:53 AM,21.9,18.0,85,30.38,10.0,Calm,Calm,-,N/A,,Clear,0,2012-11-20 09:53:00
3:53 AM,21.0,18.0,88,30.38,10.0,Calm,Calm,-,N/A,,Clear,0,2012-11-20 10:53:00
4:53 AM,19.9,16.0,85,30.43,10.0,Calm,Calm,-,N/A,,Clear,0,2012-11-20 11:53:00
5:53 AM,21.0,17.1,85,30.44,10.0,Calm,Calm,-,N/A,,Clear,0,2012-11-20 12:53:00
6:53 AM,21.0,17.1,85,30.47,10.0,Calm,Calm,-,N/A,,Clear,0,2012-11-20 13:53:00
7:53 AM,25.0,21.9,88,30.49,10.0,Calm,Calm,-,N/A,,Clear,0,2012-11-20 14:53:00
8:53 AM,30.9,27.0,85,30.46,10.0,Calm,Calm,-,N/A,,Clear,0,2012-11-20 15:53:00
9:53 AM,43.0,28.0,56,30.39,10.0,East,6.9,-,N/A,,Clear,90,2012-11-20 16:53:00
10:53 AM,48.0,28.0,46,30.36,10.0,ENE,10.4,-,N/A,,Clear,60,2012-11-20 17:53:00
11:53 AM,51.8,26.6,38,30.30,10.0,ENE,4.6,-,N/A,,Clear,60,2012-11-20 18:53:00
12:53 PM,53.1,26.1,35,30.28,10.0,ENE,5.8,-,N/A,,Clear,70,2012-11-20 19:53:00
1:53 PM,55.0,25.0,31,30.25,10.0,NNE,3.5,-,N/A,,Clear,20,2012-11-20 20:53:00
2:53 PM,55.0,25.0,31,30.22,10.0,East,5.8,-,N/A,,Clear,80,2012-11-20 21:53:00
3:53 PM,55.0,21.9,28,30.22,10.0,Calm,Calm,-,N/A,,Clear,0,2012-11-20 22:53:00
4:53 PM,43.0,25.0,49,30.28,10.0,SW,4.6,-,N/A,,Clear,220,2012-11-20 23:53:00
5:53 PM,39.0,24.1,55,30.30,10.0,Calm,Calm,-,N/A,,Clear,0,2012-11-21 00:53:00
6:53 PM,35.1,24.1,64,30.33,10.0,Calm,Calm,-,N/A,,Clear,0,2012-11-21 01:53:00
7:53 PM,33.1,23.0,66,30.33,10.0,ESE,3.5,-,N/A,,Clear,120,2012-11-21 02:53:00
8:53 PM,33.1,25.0,72,30.30,10.0,East,3.5,-,N/A,,Clear,100,2012-11-21 03:53:00
9:53 PM,32.0,24.1,73,30.23,10.0,ESE,3.5,-,N/A,,Clear,110,2012-11-21 04:53:00
10:53 PM,30.9,23.0,72,30.20,10.0,Calm,Calm,-,N/A,,Clear,0,2012-11-21 05:53:00
11:53 PM,26.1,21.0,81,30.21,10.0,Calm,Calm,-,N/A,,Clear,0,2012-11-21 06:53:00